When you browse on this site, cookies collect data to enhance your experience and personalize the content and advertising you see.
Visit our Privacy Policy to learn more. By continuing to use the site, you agree to this use of cookies and data.
  • In France
  • List of Countries
  • For 7 days
  • Water Temperature
  • Weather Map
  • Weather Widgets
  • user-avatar
    Login

    Hourly Weather Wilbraham

    Today, 1 June, Monday

    Time Temperature Precipitation Wind Pressure Humidity
    00:00 +7°C° 0 mm 1 mps 753 mmHg 73%
    01:00 +6°C° 0 mm 1 mps 753 mmHg 75%
    02:00 +5°C° 0 mm 1 mps 753 mmHg 77%
    03:00 +4°C° 0 mm 0 mps 753 mmHg 80%
    04:00 +4°C° 0 mm 0 mps 753 mmHg 82%
    05:00 +7°C° 0 mm 1 mps 754 mmHg 74%
    06:00 +9°C° 0 mm 1 mps 754 mmHg 66%
    07:00 +11°C° 0 mm 1 mps 755 mmHg 57%
    08:00 +13°C° 0 mm 2 mps 754 mmHg 52%
    09:00 +14°C° 0 mm 2 mps 754 mmHg 47%
    10:00 +16°C° 0 mm 3 mps 753 mmHg 42%
    11:00 +16°C° 0 mm 3 mps 753 mmHg 40%
    12:00 +17°C° 0 mm 3 mps 752 mmHg 38%
    13:00 +18°C° 0 mm 3 mps 752 mmHg 36%
    14:00 +18°C° 0 mm 3 mps 751 mmHg 36%
    15:00 +18°C° 0 mm 4 mps 751 mmHg 37%
    16:00 +19°C° 0 mm 4 mps 751 mmHg 37%
    17:00 +17°C° 0 mm 3 mps 751 mmHg 49%
    18:00 +15°C° 0 mm 2 mps 751 mmHg 61%
    19:00 +13°C° 0 mm 2 mps 751 mmHg 73%
    20:00 +12°C° 0 mm 1 mps 751 mmHg 77%
    21:00 +11°C° 0 mm 1 mps 751 mmHg 81%
    22:00 +10°C° 0 mm 1 mps 751 mmHg 85%
    23:00 +9°C° 0.1 mm 1 mps 751 mmHg 88%

    Tomorrow, 2 June, Tuesday

    Time Temperature Precipitation Wind Pressure Humidity
    00:00 +9°C° 0.1 mm 1 mps 751 mmHg 90%
    01:00 +9°C° 0.1 mm 1 mps 751 mmHg 93%
    02:00 +9°C° 0 mm 1 mps 750 mmHg 93%
    03:00 +9°C° 0 mm 1 mps 750 mmHg 93%
    04:00 +9°C° 0 mm 1 mps 750 mmHg 93%
    05:00 +11°C° 0 mm 1 mps 750 mmHg 91%
    06:00 +12°C° 0 mm 2 mps 750 mmHg 88%
    07:00 +13°C° 0 mm 2 mps 750 mmHg 85%
    08:00 +14°C° 0.1 mm 2 mps 750 mmHg 79%
    09:00 +16°C° 0.1 mm 2 mps 749 mmHg 72%
    10:00 +17°C° 0.1 mm 2 mps 749 mmHg 66%
    11:00 +17°C° 0.1 mm 2 mps 749 mmHg 65%
    12:00 +17°C° 0.1 mm 3 mps 748 mmHg 64%
    13:00 +16°C° 0.1 mm 3 mps 748 mmHg 63%
    14:00 +17°C° 0 mm 3 mps 747 mmHg 61%
    15:00 +17°C° 0 mm 3 mps 747 mmHg 58%
    16:00 +18°C° 0 mm 4 mps 746 mmHg 56%
    17:00 +16°C° 0 mm 3 mps 746 mmHg 64%
    18:00 +15°C° 0 mm 2 mps 746 mmHg 72%
    19:00 +14°C° 0 mm 1 mps 746 mmHg 80%
    20:00 +13°C° 0 mm 1 mps 746 mmHg 84%
    21:00 +12°C° 0 mm 1 mps 745 mmHg 88%
    22:00 +12°C° 0 mm 1 mps 745 mmHg 91%
    23:00 +12°C° 0 mm 1 mps 744 mmHg 92%

    Day after tomorrow, 3 June, Wednesday

    Time Temperature Precipitation Wind Pressure Humidity
    00:00 +12°C° 0 mm 1 mps 744 mmHg 92%
    01:00 +12°C° 0 mm 1 mps 743 mmHg 92%
    02:00 +12°C° 0 mm 1 mps 743 mmHg 94%
    03:00 +11°C° 0 mm 1 mps 743 mmHg 95%
    04:00 +11°C° 0 mm 1 mps 742 mmHg 97%
    05:00 +13°C° 0 mm 1 mps 742 mmHg 90%
    06:00 +15°C° 0 mm 1 mps 742 mmHg 83%
    07:00 +18°C° 0 mm 1 mps 742 mmHg 76%
    08:00 +21°C° 0 mm 1 mps 742 mmHg 70%
    09:00 +23°C° 0 mm 2 mps 741 mmHg 63%
    10:00 +26°C° 0 mm 2 mps 741 mmHg 57%
    11:00 +27°C° 0 mm 3 mps 741 mmHg 53%
    12:00 +28°C° 0 mm 4 mps 741 mmHg 50%
    13:00 +29°C° 0 mm 4 mps 741 mmHg 46%
    14:00 +29°C° 0 mm 4 mps 740 mmHg 49%
    15:00 +28°C° 0 mm 3 mps 740 mmHg 52%
    16:00 +28°C° 0 mm 3 mps 740 mmHg 55%
    17:00 +26°C° 0.8 mm 3 mps 740 mmHg 68%
    18:00 +22°C° 0.8 mm 3 mps 740 mmHg 81%
    19:00 +20°C° 0.8 mm 3 mps 740 mmHg 95%
    20:00 +20°C° 1.7 mm 3 mps 740 mmHg 96%
    21:00 +19°C° 1.7 mm 2 mps 740 mmHg 97%
    22:00 +19°C° 1.7 mm 2 mps 740 mmHg 98%
    23:00 +20°C° 0.1 mm 1 mps 740 mmHg 98%

    4 June, Thursday

    Time Temperature Precipitation Wind Pressure Humidity
    00:00 +19°C° 0.1 mm 1 mps 740 mmHg 98%
    01:00 +19°C° 0.1 mm 1 mps 740 mmHg 98%
    02:00 +19°C° 0 mm 1 mps 741 mmHg 98%
    03:00 +18°C° 0 mm 1 mps 741 mmHg 97%
    04:00 +18°C° 0 mm 1 mps 741 mmHg 97%
    05:00 +19°C° 0 mm 1 mps 742 mmHg 95%
    06:00 +20°C° 0 mm 1 mps 742 mmHg 93%
    07:00 +21°C° 0 mm 1 mps 743 mmHg 91%
    08:00 +23°C° 0 mm 2 mps 743 mmHg 80%
    09:00 +25°C° 0 mm 2 mps 744 mmHg 68%
    10:00 +27°C° 0 mm 2 mps 744 mmHg 57%
    11:00 +28°C° 0 mm 2 mps 744 mmHg 52%
    12:00 +29°C° 0 mm 2 mps 744 mmHg 48%
    13:00 +30°C° 0 mm 3 mps 744 mmHg 43%
    14:00 +30°C° 0 mm 3 mps 744 mmHg 43%
    15:00 +30°C° 0 mm 3 mps 744 mmHg 43%
    16:00 +30°C° 0 mm 3 mps 744 mmHg 44%
    17:00 +27°C° 0 mm 2 mps 744 mmHg 54%
    18:00 +25°C° 0 mm 1 mps 744 mmHg 64%
    19:00 +21°C° 0 mm 0 mps 745 mmHg 74%
    20:00 +20°C° 0 mm 0 mps 745 mmHg 78%
    21:00 +20°C° 0 mm 0 mps 745 mmHg 83%
    22:00 +21°C° 0 mm 1 mps 745 mmHg 88%
    23:00 +18°C° 0.1 mm 0 mps 745 mmHg 89%

    5 June, Friday

    Time Temperature Precipitation Wind Pressure Humidity
    00:00 +18°C° 0.1 mm 0 mps 745 mmHg 90%
    01:00 +18°C° 0.1 mm 0 mps 745 mmHg 91%
    02:00 +18°C° 0.2 mm 0 mps 745 mmHg 93%
    03:00 +17°C° 0.2 mm 0 mps 745 mmHg 94%
    04:00 +17°C° 0.2 mm 0 mps 745 mmHg 96%
    05:00 +18°C° 0 mm 0 mps 746 mmHg 94%
    06:00 +19°C° 0 mm 0 mps 746 mmHg 92%
    07:00 +20°C° 0 mm 0 mps 746 mmHg 90%
    08:00 +24°C° 0 mm 1 mps 746 mmHg 82%
    09:00 +26°C° 0 mm 2 mps 746 mmHg 74%
    10:00 +28°C° 0 mm 3 mps 746 mmHg 66%
    11:00 +29°C° 0.2 mm 4 mps 745 mmHg 63%
    12:00 +29°C° 0.2 mm 4 mps 745 mmHg 59%
    13:00 +30°C° 0.2 mm 5 mps 744 mmHg 56%
    14:00 +29°C° 1.1 mm 5 mps 744 mmHg 67%
    15:00 +28°C° 1.1 mm 4 mps 744 mmHg 77%
    16:00 +27°C° 1.1 mm 4 mps 744 mmHg 88%
    17:00 +25°C° 1.4 mm 4 mps 744 mmHg 89%
    18:00 +23°C° 1.4 mm 4 mps 744 mmHg 91%
    19:00 +21°C° 1.4 mm 5 mps 744 mmHg 92%
    20:00 +20°C° 0.4 mm 4 mps 744 mmHg 93%
    21:00 +19°C° 0.4 mm 4 mps 744 mmHg 95%
    22:00 +18°C° 0.4 mm 3 mps 744 mmHg 96%
    23:00 +18°C° 0 mm 3 mps 744 mmHg 96%

    6 June, Saturday

    Time Temperature Precipitation Wind Pressure Humidity
    00:00 +18°C° 0 mm 2 mps 744 mmHg 97%
    01:00 +18°C° 0 mm 2 mps 744 mmHg 97%
    02:00 +18°C° 0 mm 2 mps 744 mmHg 96%
    03:00 +18°C° 0 mm 1 mps 744 mmHg 96%
    04:00 +16°C° 0 mm 1 mps 744 mmHg 95%
    05:00 +17°C° 0 mm 2 mps 744 mmHg 90%
    06:00 +18°C° 0 mm 2 mps 744 mmHg 85%
    07:00 +19°C° 0 mm 2 mps 744 mmHg 80%
    08:00 +21°C° 0 mm 3 mps 745 mmHg 70%
    09:00 +22°C° 0 mm 4 mps 745 mmHg 60%
    10:00 +25°C° 0 mm 4 mps 745 mmHg 49%
    11:00 +25°C° 0 mm 4 mps 745 mmHg 48%
    12:00 +25°C° 0 mm 4 mps 744 mmHg 46%
    13:00 +25°C° 0 mm 5 mps 744 mmHg 45%
    14:00 +25°C° 0 mm 4 mps 744 mmHg 43%
    15:00 +25°C° 0 mm 4 mps 744 mmHg 42%
    16:00 +25°C° 0 mm 4 mps 744 mmHg 41%
    17:00 +22°C° 0 mm 4 mps 745 mmHg 45%
    18:00 +20°C° 0 mm 3 mps 745 mmHg 48%
    19:00 +18°C° 0 mm 3 mps 746 mmHg 52%
    20:00 +16°C° 0 mm 3 mps 746 mmHg 54%
    21:00 +14°C° 0 mm 2 mps 747 mmHg 55%
    22:00 +13°C° 0 mm 2 mps 747 mmHg 57%
    23:00 +12°C° 0 mm 1 mps 747 mmHg 62%
    Show more